Weather in Bordj Badji Mokhtar

Algeria     21°19′27″N   0°57′06″E
temp.,
°C
wind,
m/s
gust,
m/s
humid.,
%
clouds,
%
prec.,
mm/h
press.,
hPa
HPBL,
m
12 may, wed
wed1201:00+33n512113 0.0 1011165
04:00+31ne57125 0.0 101090
07:00+30ne611125 0.0 1011154
10:00+38ne5775 0.0 1012768
13:00+42nne6665 0.0 10093168
16:00+43n4365 0.0 10075400
19:00+40nnw5775 0.0 100788
22:00+36n6995 0.0 1008110
13 may, thu
thu1301:00+33nnw61395 0.0 1008210
04:00+31n5895 0.0 1007106
07:00+30ne4585 0.0 100954
10:00+37nne5650 0.0 1009562
13:00+42n4450 0.0 10072410
16:00+43nnw4350 0.0 10044088
19:00+40nnw5660 0.0 100455
22:00+35nnw6870 0.0 100685
14 may, fri
fri1401:00+33n5768 0.0 100573
04:00+31ene44621 0.0 100527
07:00+31nne4465 0.0 100631
10:00+38ne5545 0.0 1007516
13:00+43ne32411 0.0 10052893
16:00+43n2355 0.0 10035777
19:00+40nnw4463 0.0 100335
22:00+37n44711 0.0 100529
15 may, sat
sat1501:00+34n57844 0.0 100573
04:00+32ne34994 0.0 100520
07:00+30ese221010 0.0 100712
10:00+38e3560 0.0 1009622
13:00+44ene5641 0.0 10064834
16:00+45ene34458 0.0 10036059
19:00+40nne1259 0.0 100411
22:00+38nne446100 0.0 100627
16 may, sun
sun1601:00+35sw34991 0.0 100737
04:00+32nw5590 0.0 100649
07:00+30nnw46110 0.0 100676
10:00+39se4571 0.0 1007397
13:00+45sse3670 0.0 10055325
16:00+45se45762 0.0 10035296
19:00+42ene44973 0.0 100357
22:00+39w561212 0.0 100659